Theta_e
347 346 347 348 349 350 351 351 351 350 348 349 348 346 344 343 342 344 343 344 342 344 345 351 348 351 350 347 347 347 345 342 340 335 337 337 337 337 337 336 336 337 338
349 347 347 347 348 349 350 351 350 346 341 347 348 346 344 343 343 345 348 346 345 346 345 345 349 350 351 345 346 341 345 342 335 337 337 336 336 336 336 336 335 335 334
350 348 347 347 347 348 350 351 348 347 342 348 350 348 345 345 346 346 350 350 345 345 345 343 346 350 348 350 346 345 345 341 337 336 339 336 336 336 336 338 336 337 334
350 349 347 347 347 348 350 351 351 350 348 340 348 346 345 344 345 346 349 351 347 346 346 344 345 345 351 352 348 349 346 343 338 338 337 337 339 337 338 336 338 337 336
350 350 349 347 347 349 350 351 351 346 351 342 346 351 348 347 346 347 349 351 352 347 351 346 345 346 346 350 349 347 343 346 337 338 338 337 337 337 337 338 337 338 336
349 350 351 349 348 349 350 351 351 341 343 341 341 349 351 349 348 349 350 351 350 351 347 350 345 346 347 347 351 348 344 341 336 337 338 336 336 336 337 337 337 337 337
349 350 351 351 350 349 351 351 352 346 342 342 343 345 346 348 351 352 352 351 350 349 350 345 344 348 343 345 347 349 345 338 335 323 338 339 338 336 334 334 335 334 335
349 349 351 351 352 351 349 351 351 343 342 343 343 344 345 349 353 353 353 353 351 350 351 351 343 343 343 344 346 349 346 338 326 323 326 338 339 339 337 336 335 336 334
348 350 350 351 352 353 352 350 346 343 344 344 344 345 345 346 352 352 352 353 353 352 353 352 341 342 342 343 345 349 342 336 324 323 323 325 336 338 337 336 335 335 335
347 349 350 350 352 353 354 353 344 339 340 344 345 345 345 346 346 347 348 349 353 350 353 352 347 346 343 341 344 347 346 342 334 332 326 323 334 337 337 336 335 335 334
345 347 347 349 350 352 354 355 355 349 342 340 340 343 344 345 345 345 346 347 347 348 347 348 345 348 349 341 342 346 351 344 341 335 332 323 325 335 335 336 336 336 335
339 341 344 346 348 350 352 353 354 355 349 343 339 339 340 341 343 344 345 345 347 347 347 348 348 345 351 347 343 344 349 345 345 341 335 326 324 324 329 336 334 335 335
338 340 341 342 346 348 350 351 353 353 354 353 347 342 339 340 341 341 342 344 345 346 346 347 348 347 346 347 341 343 344 344 344 345 338 331 328 323 332 326 334 335 335
336 337 338 340 343 345 348 350 350 352 352 354 355 349 342 340 340 341 341 342 343 345 346 346 347 348 347 345 342 340 342 342 344 345 345 340 341 341 340 335 326 328 333
333 336 341 342 344 345 347 350 350 350 351 352 355 353 344 343 342 341 342 342 343 344 345 346 346 347 348 351 340 337 339 341 341 344 345 343 343 343 344 343 343 335 332
329 330 335 340 343 345 347 348 346 348 350 351 350 352 349 345 343 343 342 343 343 344 344 345 346 346 347 350 346 336 337 338 339 341 346 346 345 345 345 346 344 343 338
330 332 333 336 341 343 340 344 339 349 350 347 350 350 350 345 343 345 346 344 344 345 344 344 345 346 346 347 345 338 337 338 338 338 347 348 349 346 347 347 347 343 343
329 331 331 332 337 340 338 345 347 345 346 346 345 346 348 347 349 349 346 344 345 346 346 344 345 346 346 346 346 346 341 339 341 342 343 346 347 349 347 349 349 348 346
330 331 331 332 333 335 338 340 347 349 350 344 342 341 343 352 356 349 343 346 350 351 355 356 353 347 346 346 346 347 348 344 341 342 343 346 346 350 348 349 350 348 348
330 330 330 331 332 330 332 341 345 348 346 341 341 343 341 344 346 344 349 351 356 356 357 356 355 354 349 349 348 347 347 349 348 347 347 342 342 345 346 348 350 349 347
333 333 333 329 330 328 332 333 343 343 340 352 352 346 342 341 343 343 344 346 349 356 355 355 351 352 354 349 350 348 347 348 350 349 352 351 345 344 344 348 350 350 348
342 345 338 330 332 331 326 327 328 334 346 348 349 349 348 347 355 348 347 348 349 349 349 349 351 345 346 347 346 346 346 347 350 351 348 351 345 340 343 348 350 349 346
345 348 336 338 344 332 330 331 330 333 344 347 346 347 347 346 347 351 354 358 357 356 356 355 358 355 347 345 345 346 348 349 350 353 352 350 345 342 347 350 351 348 345
353 352 348 347 349 339 343 342 338 339 339 340 341 344 356 357 359 358 360 358 358 358 356 355 356 354 354 349 347 349 351 352 351 352 353 351 348 348 351 351 347 343 339
348 349 351 351 350 348 348 348 349 354 350 354 357 358 358 358 360 359 359 359 358 359 359 358 358 358 357 354 349 350 349 349 351 351 351 349 350 349 347 345 342 338 337
345 345 345 345 345 344 338 336 337 338 345 353 353 353 353 355 357 358 359 358 358 359 356 357 356 353 352 354 354 352 353 352 352 350 348 348 346 339 341 342 337 336 336
Wind_Speed
30 30 31 30 29 28 28 28 27 28 27 25 23 22 21 19 17 17 19 19 16 13 12 9 10 4 4 2 0 2 2 1 3 6 7 5 4 5 4 5 4 4 3
28 30 31 32 32 30 29 29 29 30 31 27 25 22 21 19 18 17 18 21 18 16 14 11 11 8 4 3 1 1 0 1 4 5 5 7 5 5 4 4 4 5 5
32 32 33 34 33 33 32 32 32 31 31 26 23 22 20 20 19 20 19 19 18 16 14 11 10 9 4 5 3 1 3 1 4 8 3 4 3 7 5 4 4 3 3
31 32 33 35 36 36 33 33 34 33 30 32 24 27 25 23 21 21 19 17 20 18 16 14 11 10 7 8 4 3 4 4 5 6 6 6 4 5 7 7 7 6 4
35 36 37 38 37 33 33 32 34 37 32 34 30 27 26 21 19 19 21 23 18 21 17 16 16 14 10 10 9 6 3 6 7 6 6 6 7 7 5 6 7 8 8
35 37 37 34 34 33 32 31 34 40 39 38 37 34 28 25 22 21 20 20 20 19 23 19 18 17 15 12 9 8 7 7 7 8 8 6 5 4 5 5 5 7 7
34 37 37 36 35 36 35 34 35 40 42 41 40 39 36 32 28 24 21 18 18 20 21 25 23 18 18 15 13 13 11 10 10 10 9 8 7 6 5 5 4 4 5
33 35 38 39 39 40 42 40 39 43 43 43 43 41 39 35 31 28 24 21 20 19 20 23 25 23 20 18 16 15 13 13 13 12 11 9 9 8 7 5 4 3 6
32 36 38 40 39 40 44 46 48 47 46 45 45 44 42 41 34 32 31 27 23 20 20 21 24 24 23 21 19 16 17 17 15 15 14 13 11 10 9 8 6 7 7
30 31 34 38 40 40 41 44 49 49 49 48 48 47 46 44 43 42 39 34 29 28 22 23 23 25 25 24 23 20 21 21 19 17 18 16 13 13 11 10 9 10 11
29 31 32 34 37 36 37 40 42 48 48 49 49 49 48 47 45 46 45 42 39 36 31 30 26 27 27 28 27 24 22 24 23 23 22 20 18 14 13 12 12 13 12
24 24 26 27 30 35 38 41 42 42 48 48 47 49 49 47 45 47 46 44 42 41 38 35 32 31 29 30 32 30 26 28 27 26 26 24 21 20 17 15 18 15 12
17 20 22 27 29 32 35 37 39 43 42 45 46 47 48 48 49 48 45 44 42 41 40 40 39 35 35 34 35 34 33 32 30 28 27 25 23 23 19 20 17 14 15
10 17 20 26 25 29 35 41 37 38 39 40 43 48 52 51 49 48 46 46 46 45 43 42 41 39 36 37 37 38 38 36 34 32 30 28 27 25 22 23 21 19 16
4 9 14 19 21 25 31 36 36 38 39 43 41 49 53 54 53 53 51 48 48 46 45 44 43 42 41 37 42 42 42 41 38 35 34 33 30 29 26 24 22 21 20
22 18 16 17 19 23 26 29 36 39 40 42 49 47 46 48 51 53 53 52 50 49 47 49 48 47 45 43 42 43 44 45 44 41 36 34 33 32 29 27 26 25 22
20 17 16 18 18 22 22 25 28 30 37 43 44 45 45 44 44 47 48 50 52 51 51 50 52 53 51 49 46 45 45 47 47 44 38 34 32 34 31 30 29 28 27
25 24 22 19 19 20 20 22 24 30 38 41 41 44 46 45 42 42 44 45 47 50 51 52 53 55 54 52 49 47 44 45 46 44 41 41 38 36 32 31 29 31 32
28 27 25 22 20 22 21 19 23 27 32 39 39 41 43 40 36 42 43 43 40 41 40 39 44 53 56 54 51 49 47 47 49 50 45 41 40 39 33 31 28 29 30
26 26 23 22 22 25 21 20 23 25 31 35 35 34 37 39 39 40 39 37 34 34 33 37 40 43 50 51 53 51 49 48 48 45 48 48 45 42 35 32 30 31 31
21 20 21 24 23 21 18 18 20 25 27 24 27 31 34 36 37 38 37 37 37 33 37 38 40 42 44 51 53 54 54 53 45 44 39 37 44 45 39 34 33 35 29
20 19 20 21 21 23 24 22 22 20 23 23 24 28 31 30 28 36 38 38 36 37 41 43 43 40 49 52 56 60 57 54 50 45 43 39 44 39 36 36 34 30 25
19 16 14 15 15 18 20 20 19 20 22 23 25 25 26 27 30 33 33 31 34 36 39 38 42 38 44 51 62 59 57 52 50 40 39 44 43 31 31 32 31 28 24
10 7 9 12 11 12 12 14 14 14 15 15 17 18 21 22 23 25 27 29 31 36 41 44 47 43 45 52 53 57 52 43 42 43 42 38 29 25 27 30 29 28 25
3 3 6 9 10 12 13 14 14 12 12 12 12 14 15 19 20 24 25 28 33 35 37 40 39 38 38 48 53 51 46 48 46 52 39 31 28 30 24 27 28 30 30
6 6 6 6 9 8 10 11 12 12 10 6 6 9 12 14 16 20 23 34 34 35 41 41 38 37 38 38 44 46 36 39 43 49 35 27 32 27 26 32 31 32 30
Wind_Direction
199 200 202 203 203 203 205 204 202 205 205 204 205 206 208 210 213 216 216 220 226 237 248 247 255 236 254 245 155 23 357 347 314 126 126 137 136 144 119 100 98 110 152
197 200 204 203 204 204 205 206 206 207 210 209 206 207 207 213 216 218 219 219 232 240 247 248 236 236 247 290 280 138 152 331 155 159 153 149 144 159 148 139 116 108 106
199 199 200 204 204 206 206 207 209 208 211 204 207 208 208 209 217 216 220 226 232 229 231 237 238 238 222 269 279 267 172 227 180 165 193 165 157 167 186 188 175 143 112
205 202 202 202 206 208 207 209 212 211 212 211 206 210 209 213 215 216 219 222 224 223 230 240 242 234 229 237 269 243 206 176 191 194 211 207 168 219 170 211 212 205 197
205 203 203 206 207 206 207 208 212 215 210 212 205 214 212 218 216 216 219 225 228 225 229 237 239 242 242 250 234 272 240 220 193 200 209 221 226 237 248 217 207 226 226
206 207 207 206 206 206 207 208 212 215 215 216 215 217 216 208 212 216 218 221 222 228 226 228 233 241 236 241 251 258 253 214 215 205 208 210 210 237 233 247 249 243 225
207 206 205 204 205 205 206 207 212 215 216 217 220 220 223 223 219 217 218 217 220 221 227 228 228 231 231 237 248 256 251 239 225 215 216 223 224 227 227 241 252 253 240
207 206 205 205 205 204 207 206 211 217 217 219 222 224 226 226 226 230 220 222 219 223 221 230 224 225 229 237 247 250 243 232 230 228 218 223 229 229 227 228 238 233 239
204 206 206 207 207 207 208 209 215 219 220 223 225 227 229 228 225 224 233 225 223 222 221 222 221 221 228 233 238 236 242 233 232 234 231 227 226 228 227 231 231 238 258
202 205 207 209 211 211 209 210 219 222 221 222 226 228 231 231 232 236 233 232 225 226 220 225 222 221 225 228 234 235 238 239 237 231 235 231 223 228 226 228 234 237 240
202 204 209 211 214 213 212 212 214 220 224 224 226 228 228 231 233 235 237 237 237 236 229 234 227 222 223 227 233 232 229 239 239 238 236 237 232 222 227 228 230 236 238
212 213 214 211 211 212 213 214 213 213 220 226 226 228 229 229 231 234 236 237 236 236 235 233 233 228 223 227 233 236 231 239 241 242 241 243 238 238 223 229 233 234 237
228 219 212 210 213 214 213 214 214 215 215 218 223 226 228 229 230 233 235 237 233 231 232 232 232 232 228 229 234 236 237 240 244 244 244 242 238 240 230 240 236 238 237
220 223 225 219 216 214 214 212 213 216 215 216 214 222 229 230 231 231 232 234 235 231 230 231 232 234 233 231 233 235 236 238 241 243 242 240 239 241 242 246 247 236 234
288 253 228 214 216 216 217 218 217 215 212 216 216 220 227 231 233 234 234 234 235 235 233 232 231 233 233 231 234 236 236 236 239 241 242 241 241 245 246 247 250 247 245
280 273 249 227 227 224 221 220 223 218 213 214 220 220 225 229 232 235 237 237 236 236 234 234 232 231 232 230 232 235 235 237 238 240 241 239 244 246 247 250 250 252 246
272 262 238 240 238 225 228 225 232 219 217 219 221 223 227 233 233 233 235 238 238 237 235 233 234 232 232 233 235 235 234 237 239 239 239 237 240 247 247 248 248 245 252
264 258 256 251 246 241 240 239 223 226 219 224 223 228 227 232 231 230 235 236 237 236 235 235 233 234 234 235 235 237 237 239 239 239 240 242 241 244 246 250 248 245 246
255 260 261 260 258 249 249 234 223 218 217 225 229 234 234 228 222 235 239 236 233 234 231 233 235 238 239 237 235 235 236 237 239 241 240 239 242 242 246 247 247 246 246
260 261 261 259 252 256 248 225 214 213 224 226 227 230 235 236 236 241 237 234 228 228 225 228 233 236 240 241 244 240 237 237 235 238 239 241 242 247 246 245 243 238 239
270 263 257 252 247 241 224 225 215 222 230 222 221 228 232 235 238 241 242 241 239 225 229 226 232 236 236 237 241 240 238 235 236 230 233 232 238 239 242 238 238 243 237
276 275 264 247 233 229 230 230 233 232 223 219 221 229 235 232 225 235 238 235 234 238 236 238 230 235 241 239 237 240 235 236 230 230 230 230 239 239 234 231 237 235 225
267 265 245 222 217 222 222 221 224 217 215 215 222 224 231 233 227 233 228 221 226 223 227 225 229 227 238 242 241 239 242 235 233 231 232 229 243 234 223 225 227 218 206
253 244 215 200 195 197 193 196 200 200 203 211 217 221 223 222 219 218 220 221 222 225 225 224 228 231 232 236 239 239 235 235 229 224 229 220 230 232 221 218 212 206 200
170 136 150 145 130 149 158 165 173 180 194 199 206 213 217 223 220 220 223 225 227 229 230 231 236 233 231 234 234 236 236 233 223 220 219 211 201 199 210 210 208 203 200
116 105 98 100 103 115 136 149 165 170 167 173 204 215 219 228 232 231 237 232 232 234 238 233 234 238 242 241 244 245 243 229 213 209 197 203 187 203 217 216 208 207 207